Year,Month,Day,Hour,Minute,Value (Times are PST for temperature in C)
2007,06,23,00,00,12.60
2007,06,23,00,01,12.70
2007,06,23,00,02,12.60
2007,06,23,00,03,12.70
2007,06,23,00,04,12.70
2007,06,23,00,05,12.70
2007,06,23,00,06,12.70
2007,06,23,00,07,12.70
2007,06,23,00,08,12.70
2007,06,23,00,09,12.70
2007,06,23,00,10,12.70
2007,06,23,00,11,12.70
2007,06,23,00,12,12.70
2007,06,23,00,13,12.70
2007,06,23,01,02,12.10
2007,06,23,01,03,12.10
2007,06,23,01,04,12.10
2007,06,23,01,05,12.10
2007,06,23,01,06,12.10
2007,06,23,01,07,12.10
2007,06,23,01,08,12.10
2007,06,23,01,09,12.10
2007,06,23,01,10,12.10
2007,06,23,01,11,12.10
2007,06,23,01,12,12.00
2007,06,23,01,13,12.00
2007,06,23,01,14,12.00
2007,06,23,01,15,12.00
2007,06,23,01,16,11.90
2007,06,23,01,17,11.90
2007,06,23,01,18,11.90
2007,06,23,01,19,11.90
2007,06,23,01,20,11.90
2007,06,23,01,21,11.90
2007,06,23,01,22,11.80
2007,06,23,01,23,11.80
2007,06,23,01,24,11.80
2007,06,23,01,25,11.80
2007,06,23,01,26,11.80
2007,06,23,01,27,11.90
2007,06,23,01,28,11.90
2007,06,23,01,29,11.90
2007,06,23,01,30,11.90
2007,06,23,01,31,11.90
2007,06,23,01,32,11.90
2007,06,23,01,33,11.90
2007,06,23,01,34,11.90
2007,06,23,01,35,11.90
2007,06,23,01,36,11.90
2007,06,23,01,37,11.90
2007,06,23,01,38,11.90
2007,06,23,01,39,11.90
2007,06,23,01,40,11.90
2007,06,23,01,41,11.90
2007,06,23,01,42,11.80
2007,06,23,01,43,11.80
2007,06,23,01,44,11.80
2007,06,23,01,45,11.80
2007,06,23,01,46,11.80
2007,06,23,01,47,11.80
2007,06,23,01,48,11.80
2007,06,23,01,49,11.80
2007,06,23,01,50,11.70
2007,06,23,01,51,11.70
2007,06,23,01,52,11.70
2007,06,23,01,53,11.70
2007,06,23,01,54,11.70
2007,06,23,01,55,11.70
2007,06,23,01,56,11.70
2007,06,23,01,57,11.70
2007,06,23,01,58,11.70
2007,06,23,01,59,11.70
2007,06,23,02,00,11.70
2007,06,23,02,01,11.70
2007,06,23,02,02,11.60
2007,06,23,02,03,11.60
2007,06,23,02,04,11.60
2007,06,23,02,05,11.60
2007,06,23,02,06,11.60
2007,06,23,02,07,11.60
2007,06,23,02,08,11.60
2007,06,23,02,09,11.60
2007,06,23,02,10,11.60
2007,06,23,02,11,11.60
2007,06,23,02,12,11.60
2007,06,23,02,13,11.60
2007,06,23,02,14,11.60
2007,06,23,02,15,11.70
2007,06,23,02,16,11.60
2007,06,23,02,17,11.70
2007,06,23,02,18,11.60
2007,06,23,02,19,11.60
2007,06,23,02,20,11.60
2007,06,23,02,21,11.60
2007,06,23,02,22,11.60
2007,06,23,02,23,11.60
2007,06,23,02,24,11.60
2007,06,23,02,25,11.60
2007,06,23,02,26,11.60
2007,06,23,02,27,11.60
2007,06,23,02,28,11.60
2007,06,23,02,29,11.60
2007,06,23,02,30,11.50
2007,06,23,02,31,11.50
2007,06,23,02,32,11.50
2007,06,23,02,33,11.50
2007,06,23,02,34,11.40
2007,06,23,02,35,11.40
2007,06,23,02,36,11.50
2007,06,23,02,37,11.50
2007,06,23,02,38,11.50
2007,06,23,02,39,11.60
2007,06,23,02,40,11.60
2007,06,23,02,41,11.60
2007,06,23,02,42,11.60
2007,06,23,02,43,11.60
2007,06,23,02,44,11.60
2007,06,23,02,45,11.60
2007,06,23,02,46,11.60
2007,06,23,02,47,11.70
2007,06,23,02,48,11.70
2007,06,23,02,49,11.70
2007,06,23,02,50,11.80
2007,06,23,02,51,11.80
2007,06,23,02,52,11.90
2007,06,23,02,53,11.90
2007,06,23,02,54,11.90
2007,06,23,02,55,11.90
2007,06,23,02,56,11.90
2007,06,23,02,57,11.90
2007,06,23,02,58,11.90
2007,06,23,02,59,11.90
2007,06,23,03,00,11.90
2007,06,23,03,01,11.90
2007,06,23,03,02,11.90
2007,06,23,03,03,11.90
2007,06,23,03,04,11.90
2007,06,23,03,05,11.90
2007,06,23,03,06,11.80
2007,06,23,03,07,11.80
2007,06,23,03,08,11.80
2007,06,23,03,09,11.80
2007,06,23,03,10,11.80
2007,06,23,03,11,11.80
2007,06,23,03,12,11.80
2007,06,23,03,13,11.70
2007,06,23,03,14,11.70
2007,06,23,03,15,11.60
2007,06,23,03,16,11.60
2007,06,23,03,17,11.60
2007,06,23,03,18,11.60
2007,06,23,03,19,11.50
2007,06,23,03,20,11.50
2007,06,23,03,21,11.40
2007,06,23,03,22,11.40
2007,06,23,03,23,11.40
2007,06,23,03,24,11.30
2007,06,23,03,25,11.30
2007,06,23,03,26,11.30
2007,06,23,03,27,11.30
2007,06,23,03,28,11.20
2007,06,23,03,29,11.20
2007,06,23,03,30,11.20
2007,06,23,03,31,11.20
2007,06,23,03,32,11.20
2007,06,23,03,33,11.30
2007,06,23,03,34,11.30
2007,06,23,03,35,11.30
2007,06,23,03,36,11.30
2007,06,23,03,37,11.30
2007,06,23,03,38,11.30
2007,06,23,03,39,11.30
2007,06,23,03,40,11.30
2007,06,23,03,41,11.30
2007,06,23,03,42,11.30
2007,06,23,03,43,11.30
2007,06,23,03,44,11.30
2007,06,23,03,45,11.30
2007,06,23,03,46,11.30
2007,06,23,03,47,11.30
2007,06,23,03,48,11.20
2007,06,23,03,49,11.20
2007,06,23,03,50,11.20
2007,06,23,03,51,11.20
2007,06,23,03,52,11.10
2007,06,23,03,53,11.10
2007,06,23,03,54,11.10
2007,06,23,03,55,11.10
2007,06,23,03,56,11.00
2007,06,23,03,57,11.00
2007,06,23,03,58,10.90
2007,06,23,03,59,10.80
2007,06,23,04,00,10.80
2007,06,23,04,01,10.80
2007,06,23,04,02,10.70
2007,06,23,04,03,10.70
2007,06,23,04,04,10.60
2007,06,23,04,05,10.60
2007,06,23,04,06,10.50
2007,06,23,04,07,10.50
2007,06,23,04,08,10.40
2007,06,23,04,09,10.40
2007,06,23,04,10,10.40
2007,06,23,04,11,10.40
2007,06,23,04,12,10.50
2007,06,23,04,13,10.60
2007,06,23,04,14,10.70
2007,06,23,04,15,10.80
2007,06,23,04,16,10.80
2007,06,23,04,17,10.80
2007,06,23,04,18,10.90
2007,06,23,04,19,11.00
2007,06,23,04,20,11.00
2007,06,23,04,21,11.10
2007,06,23,04,22,11.10
2007,06,23,04,23,11.10
2007,06,23,04,24,11.20
2007,06,23,04,25,11.20
2007,06,23,04,26,11.20
2007,06,23,04,27,11.20
2007,06,23,04,28,11.20
2007,06,23,04,29,11.20
2007,06,23,04,30,11.20
2007,06,23,04,31,11.20
2007,06,23,04,32,11.20
2007,06,23,04,33,11.20
2007,06,23,04,34,11.20
2007,06,23,04,35,11.10
2007,06,23,04,36,11.10
2007,06,23,04,37,11.10
2007,06,23,04,38,11.00
2007,06,23,04,39,11.00
2007,06,23,04,40,11.00
2007,06,23,04,41,10.90
2007,06,23,04,42,10.90
2007,06,23,04,43,10.80
2007,06,23,04,44,10.80
2007,06,23,04,45,10.80
2007,06,23,04,46,10.70
2007,06,23,04,47,10.70
2007,06,23,04,48,10.70
2007,06,23,04,49,10.60
2007,06,23,04,50,10.60
2007,06,23,04,51,10.60
2007,06,23,04,52,10.60
2007,06,23,04,53,10.50
2007,06,23,04,54,10.50
2007,06,23,04,55,10.50
2007,06,23,04,56,10.40
2007,06,23,04,57,10.40
2007,06,23,04,58,10.40
2007,06,23,04,59,10.40
2007,06,23,05,00,10.40
2007,06,23,05,01,10.40
2007,06,23,05,02,10.40
2007,06,23,05,03,10.30
2007,06,23,05,04,10.30
2007,06,23,05,05,10.30
2007,06,23,05,06,10.30
2007,06,23,05,07,10.30
2007,06,23,05,08,10.30
2007,06,23,05,09,10.30
2007,06,23,05,10,10.30
2007,06,23,05,11,10.30
2007,06,23,05,12,10.30
2007,06,23,05,13,10.30
2007,06,23,05,14,10.30
2007,06,23,05,15,10.20
2007,06,23,05,16,10.20
2007,06,23,05,17,10.20
2007,06,23,05,18,10.20
2007,06,23,05,19,10.20
2007,06,23,05,20,10.20
2007,06,23,05,21,10.20
2007,06,23,05,22,10.20
2007,06,23,05,23,10.20
2007,06,23,05,24,10.20
2007,06,23,05,25,10.20
2007,06,23,05,26,10.20
2007,06,23,05,27,10.20
2007,06,23,05,28,10.20
2007,06,23,05,29,10.10
2007,06,23,05,30,10.10
2007,06,23,05,31,10.10
2007,06,23,05,32,10.10
2007,06,23,05,33,10.10
2007,06,23,05,34,10.10
2007,06,23,05,35,10.10
2007,06,23,05,36,10.10
2007,06,23,05,37,10.10
2007,06,23,05,38,10.10
2007,06,23,05,39,10.10
2007,06,23,05,40,10.10
2007,06,23,05,41,10.10
2007,06,23,05,42,10.10
2007,06,23,05,43,10.10
2007,06,23,05,44,10.10
2007,06,23,05,45,10.10
2007,06,23,05,46,10.10
2007,06,23,05,47,10.10
2007,06,23,05,48,10.10
2007,06,23,05,49,10.10
2007,06,23,05,50,10.10
2007,06,23,05,51,10.10
2007,06,23,05,52,10.10
2007,06,23,05,53,10.10
2007,06,23,05,54,10.10
2007,06,23,05,55,10.10
2007,06,23,05,56,10.10
2007,06,23,05,57,10.10
2007,06,23,05,58,10.10
2007,06,23,05,59,10.20
2007,06,23,06,00,10.20
2007,06,23,06,01,10.20
2007,06,23,06,02,10.20
2007,06,23,06,03,10.20
2007,06,23,06,04,10.20
2007,06,23,06,05,10.20
2007,06,23,06,06,10.20
2007,06,23,06,07,10.20
2007,06,23,06,08,10.30
2007,06,23,06,09,10.30
2007,06,23,06,10,10.30
2007,06,23,06,11,10.30
2007,06,23,06,12,10.30
2007,06,23,06,13,10.30
2007,06,23,06,14,10.40
2007,06,23,06,15,10.40
2007,06,23,06,16,10.40
2007,06,23,06,17,10.40
2007,06,23,06,18,10.50
2007,06,23,06,19,10.50
2007,06,23,06,20,10.50
2007,06,23,06,21,10.60
2007,06,23,06,22,10.60
2007,06,23,06,23,10.60
2007,06,23,06,24,10.60
2007,06,23,06,25,10.60
2007,06,23,06,26,10.70
2007,06,23,06,27,10.70
2007,06,23,06,28,10.70
2007,06,23,06,29,10.70
2007,06,23,06,30,10.70
2007,06,23,06,31,10.70
2007,06,23,06,32,10.70
2007,06,23,06,33,10.80
2007,06,23,06,34,10.80
2007,06,23,06,35,10.80
2007,06,23,06,36,10.80
2007,06,23,06,37,10.80
2007,06,23,06,38,10.80
2007,06,23,06,39,10.80
2007,06,23,06,40,10.90
2007,06,23,06,41,10.90
2007,06,23,06,42,10.90
2007,06,23,06,43,10.90
2007,06,23,06,44,11.00
2007,06,23,06,45,11.00
2007,06,23,06,46,11.00
2007,06,23,06,47,11.00
2007,06,23,06,48,11.10
2007,06,23,06,49,11.10
2007,06,23,06,50,11.10
2007,06,23,06,51,11.10
2007,06,23,06,52,11.10
2007,06,23,06,53,11.10
2007,06,23,06,54,11.10
2007,06,23,06,55,11.10
2007,06,23,06,56,11.10
2007,06,23,06,57,11.20
2007,06,23,06,58,11.10
2007,06,23,06,59,11.10
2007,06,23,07,00,11.10
2007,06,23,07,01,11.10
2007,06,23,07,02,11.10
2007,06,23,07,03,11.10
2007,06,23,07,04,11.10
2007,06,23,07,05,11.10
2007,06,23,07,06,11.10
2007,06,23,07,07,11.10
2007,06,23,07,08,11.10
2007,06,23,07,09,11.10
2007,06,23,07,10,11.20
2007,06,23,07,11,11.20
2007,06,23,07,12,11.20
2007,06,23,07,13,11.30
2007,06,23,07,14,11.30
2007,06,23,07,15,11.40
2007,06,23,07,16,11.40
2007,06,23,07,17,11.50
2007,06,23,07,18,11.60
2007,06,23,07,19,11.60
2007,06,23,07,20,11.70
2007,06,23,07,21,11.80
2007,06,23,07,22,11.80
2007,06,23,07,23,11.80
2007,06,23,07,24,11.80
2007,06,23,07,25,11.90
2007,06,23,07,26,11.90
2007,06,23,07,27,11.90
2007,06,23,07,28,12.00
2007,06,23,07,29,12.00
2007,06,23,07,30,12.10
2007,06,23,07,31,12.10
2007,06,23,07,32,12.20
2007,06,23,07,33,12.20
2007,06,23,07,34,12.20
2007,06,23,07,35,12.20
2007,06,23,07,36,12.20
2007,06,23,07,37,12.20
2007,06,23,07,38,12.20
2007,06,23,07,39,12.10
2007,06,23,07,40,12.10
2007,06,23,07,41,12.10
2007,06,23,07,42,12.10
2007,06,23,07,43,12.10
2007,06,23,07,44,12.10
2007,06,23,07,45,12.00
2007,06,23,07,46,12.00
2007,06,23,07,47,11.90
2007,06,23,07,48,11.90
2007,06,23,07,49,11.90
2007,06,23,07,50,11.80
2007,06,23,07,51,11.80
2007,06,23,07,52,11.80
2007,06,23,07,53,11.80
2007,06,23,07,54,11.80
2007,06,23,07,55,11.90
2007,06,23,07,56,11.90
2007,06,23,07,57,12.00
2007,06,23,07,58,12.10
2007,06,23,07,59,12.10
2007,06,23,08,00,12.20
2007,06,23,08,01,12.30
2007,06,23,08,02,12.40
2007,06,23,08,03,12.40
2007,06,23,08,04,12.50
2007,06,23,08,05,12.50
2007,06,23,08,06,12.60
2007,06,23,08,07,12.60
2007,06,23,08,08,12.60
2007,06,23,08,09,12.60
2007,06,23,08,10,12.70
2007,06,23,08,11,12.80
2007,06,23,08,12,12.80
2007,06,23,08,13,12.90
2007,06,23,08,14,13.00
2007,06,23,08,15,13.00
2007,06,23,08,16,13.10
2007,06,23,08,17,13.10
2007,06,23,08,18,13.10
2007,06,23,08,19,13.20
2007,06,23,08,20,13.20
2007,06,23,08,21,13.30
2007,06,23,08,22,13.30
2007,06,23,08,23,13.40
2007,06,23,08,24,13.50
2007,06,23,08,25,13.60
2007,06,23,08,26,13.60
2007,06,23,08,27,13.70
2007,06,23,08,28,13.90
2007,06,23,08,29,14.00
2007,06,23,08,30,14.10
2007,06,23,08,31,14.20
2007,06,23,08,32,14.30
2007,06,23,08,33,14.40
2007,06,23,08,34,14.40
2007,06,23,08,35,14.60
2007,06,23,08,36,14.70
2007,06,23,08,37,14.80
2007,06,23,08,38,14.80
2007,06,23,08,39,14.70
2007,06,23,08,40,14.60
2007,06,23,08,41,14.50
2007,06,23,08,42,14.60
2007,06,23,08,43,14.70
2007,06,23,08,44,14.70
2007,06,23,08,45,14.80
2007,06,23,08,46,14.90
2007,06,23,08,47,14.90
2007,06,23,08,48,14.90
2007,06,23,08,49,14.90
2007,06,23,08,50,14.80
2007,06,23,08,51,14.80
2007,06,23,08,52,14.70
2007,06,23,08,53,14.70
2007,06,23,08,54,14.60
2007,06,23,08,55,14.60
2007,06,23,08,56,14.50
2007,06,23,08,57,14.40
2007,06,23,08,58,14.40
2007,06,23,08,59,14.40
2007,06,23,09,00,14.30
2007,06,23,09,01,14.30
2007,06,23,09,02,14.30
2007,06,23,09,03,14.40
2007,06,23,09,04,14.40
2007,06,23,09,05,14.40
2007,06,23,09,06,14.50
2007,06,23,09,07,14.50
2007,06,23,09,08,14.50
2007,06,23,09,09,14.50
2007,06,23,09,10,14.50
2007,06,23,09,11,14.40
2007,06,23,09,12,14.40
2007,06,23,09,13,14.40
2007,06,23,09,14,14.30
2007,06,23,09,15,14.40
2007,06,23,09,16,14.40
2007,06,23,09,17,14.40
2007,06,23,09,18,14.40
2007,06,23,09,19,14.50
2007,06,23,09,20,14.50
2007,06,23,09,21,14.60
2007,06,23,09,22,14.70
2007,06,23,09,23,14.70
2007,06,23,09,24,14.80
2007,06,23,09,25,14.80
2007,06,23,09,26,14.80
2007,06,23,09,27,14.70
2007,06,23,09,28,14.70
2007,06,23,09,29,14.70
2007,06,23,09,30,14.70
2007,06,23,09,31,14.70
2007,06,23,09,32,14.70
2007,06,23,09,33,14.60
2007,06,23,09,34,14.60
2007,06,23,09,35,14.60
2007,06,23,09,36,14.70
2007,06,23,09,37,14.60
2007,06,23,09,38,14.60
2007,06,23,09,39,14.70
2007,06,23,09,40,14.70
2007,06,23,09,41,14.80
2007,06,23,09,42,14.90
2007,06,23,09,43,14.90
2007,06,23,09,44,14.90
2007,06,23,09,45,14.90
2007,06,23,09,46,14.90
2007,06,23,09,47,14.90
2007,06,23,09,48,14.90
2007,06,23,09,49,15.00
2007,06,23,09,50,15.00
2007,06,23,09,51,15.00
2007,06,23,09,52,15.00
2007,06,23,09,53,15.00
2007,06,23,09,54,14.90
2007,06,23,09,55,14.80
2007,06,23,09,56,14.70
2007,06,23,09,57,14.60
2007,06,23,09,58,14.60
2007,06,23,09,59,14.60
2007,06,23,10,00,14.60
2007,06,23,10,01,14.60
2007,06,23,10,02,14.60
2007,06,23,10,03,14.70
2007,06,23,10,04,14.70
2007,06,23,10,05,14.80
2007,06,23,10,06,15.00
2007,06,23,10,07,15.00
2007,06,23,10,08,15.00
2007,06,23,10,09,15.10
2007,06,23,10,10,15.20
2007,06,23,10,11,15.20
2007,06,23,10,12,15.20
2007,06,23,10,13,15.10
2007,06,23,10,14,15.10
2007,06,23,10,15,15.00
2007,06,23,10,16,15.00
2007,06,23,10,17,15.00
2007,06,23,10,18,14.80
2007,06,23,10,19,14.50
2007,06,23,10,20,14.30
2007,06,23,10,21,14.30
2007,06,23,10,22,14.30
2007,06,23,10,23,14.30
2007,06,23,10,24,14.40
2007,06,23,10,25,14.60
2007,06,23,10,26,14.80
2007,06,23,10,27,14.90
2007,06,23,10,28,14.90
2007,06,23,10,29,14.70
2007,06,23,10,30,14.60
2007,06,23,10,31,14.70
2007,06,23,10,32,14.70
2007,06,23,10,33,14.60
2007,06,23,10,34,14.60
2007,06,23,10,35,14.60
2007,06,23,10,36,14.70
2007,06,23,10,37,14.70
2007,06,23,10,38,14.70
2007,06,23,10,39,14.80
2007,06,23,10,40,14.90
2007,06,23,10,41,15.00
2007,06,23,10,42,15.00
2007,06,23,10,43,15.00
2007,06,23,10,44,15.00
2007,06,23,10,45,15.00
2007,06,23,10,46,15.00
2007,06,23,10,47,14.80
2007,06,23,10,48,14.70
2007,06,23,10,49,14.70
2007,06,23,10,50,14.70
2007,06,23,10,51,14.60
2007,06,23,10,52,14.60
2007,06,23,10,53,14.60
2007,06,23,10,54,14.60
2007,06,23,10,55,14.60
2007,06,23,10,56,14.50
2007,06,23,10,57,14.40
2007,06,23,10,58,14.40
2007,06,23,10,59,14.50
2007,06,23,11,00,14.50
2007,06,23,11,01,14.50
2007,06,23,11,02,14.50
2007,06,23,11,03,14.60
2007,06,23,11,04,14.80
2007,06,23,11,05,14.80
2007,06,23,11,06,14.80
2007,06,23,11,07,14.80
2007,06,23,11,08,14.90
2007,06,23,11,09,14.80
2007,06,23,11,10,14.80
2007,06,23,11,11,14.90
2007,06,23,11,12,15.00
2007,06,23,11,13,15.00
2007,06,23,11,14,15.00
2007,06,23,11,15,15.00
2007,06,23,11,16,15.00
2007,06,23,11,17,15.00
2007,06,23,11,18,15.00
2007,06,23,11,19,14.90
2007,06,23,11,20,15.00
2007,06,23,11,21,14.90
2007,06,23,11,22,14.90
2007,06,23,11,23,15.00
2007,06,23,11,24,15.00
2007,06,23,11,25,15.00
2007,06,23,11,26,15.00
2007,06,23,11,27,14.90
2007,06,23,11,28,14.90
2007,06,23,11,29,14.90
2007,06,23,11,30,14.70
2007,06,23,11,31,14.60
2007,06,23,11,32,14.40
2007,06,23,11,33,14.40
2007,06,23,11,34,14.40
2007,06,23,11,35,14.30
2007,06,23,11,36,14.30
2007,06,23,11,37,14.20
2007,06,23,11,38,14.10
2007,06,23,11,39,14.10
2007,06,23,11,40,14.10
2007,06,23,11,41,14.10
2007,06,23,11,42,14.20
2007,06,23,11,43,14.20
2007,06,23,11,44,14.30
2007,06,23,11,45,14.30
2007,06,23,11,46,14.30
2007,06,23,11,47,14.30
2007,06,23,11,48,14.40
2007,06,23,11,49,14.50
2007,06,23,11,50,14.50
2007,06,23,11,51,14.40
2007,06,23,11,52,14.40
2007,06,23,11,53,14.40
2007,06,23,11,54,14.40
2007,06,23,11,55,14.50
2007,06,23,11,56,14.60
2007,06,23,11,57,14.70
2007,06,23,11,58,14.90
2007,06,23,11,59,15.00
2007,06,23,12,00,15.00
2007,06,23,12,01,14.90
2007,06,23,12,02,14.90
2007,06,23,12,03,15.00
2007,06,23,12,04,15.00
2007,06,23,12,05,15.00
2007,06,23,12,06,15.20
2007,06,23,12,07,15.30
2007,06,23,12,08,15.30
2007,06,23,12,09,15.30
2007,06,23,12,10,15.30
2007,06,23,12,11,15.40
2007,06,23,12,12,15.30
2007,06,23,12,13,15.30
2007,06,23,12,14,15.20
2007,06,23,12,15,15.20
2007,06,23,12,16,15.20
2007,06,23,12,17,15.20
2007,06,23,12,18,15.20
2007,06,23,12,19,15.10
2007,06,23,12,20,15.00
2007,06,23,12,21,15.00
2007,06,23,12,22,15.00
2007,06,23,12,23,15.00
2007,06,23,12,24,15.00
2007,06,23,12,25,15.00
2007,06,23,12,26,15.00
2007,06,23,12,27,15.00
2007,06,23,12,28,15.10
2007,06,23,12,29,15.20
2007,06,23,12,30,15.30
2007,06,23,12,31,15.30
2007,06,23,12,32,15.40
2007,06,23,12,33,15.30
2007,06,23,12,34,15.30
2007,06,23,12,35,15.40
2007,06,23,12,36,15.40
2007,06,23,12,37,15.40
2007,06,23,12,38,15.40
2007,06,23,12,39,15.40
2007,06,23,12,40,15.30
2007,06,23,12,41,15.30
2007,06,23,12,42,15.20
2007,06,23,12,43,15.20
2007,06,23,12,44,15.20
2007,06,23,12,45,15.20
2007,06,23,12,46,15.20
2007,06,23,12,47,15.30
2007,06,23,12,48,15.30
2007,06,23,12,49,15.40
2007,06,23,12,50,15.40
2007,06,23,12,51,15.60
2007,06,23,12,52,15.60
2007,06,23,12,53,15.70
2007,06,23,12,54,15.80
2007,06,23,12,55,15.80
2007,06,23,12,56,15.90
2007,06,23,12,57,15.90
2007,06,23,12,58,15.90
2007,06,23,12,59,15.80
2007,06,23,13,00,15.80
2007,06,23,13,01,15.70
2007,06,23,13,02,15.50
2007,06,23,13,03,15.40
2007,06,23,13,04,15.40
2007,06,23,13,05,15.50
2007,06,23,13,06,15.60
2007,06,23,13,07,15.80
2007,06,23,13,08,16.00
2007,06,23,13,09,16.20
2007,06,23,13,10,16.30
2007,06,23,13,11,16.30
2007,06,23,13,12,16.30
2007,06,23,13,13,16.30
2007,06,23,13,14,16.40
2007,06,23,13,15,16.40
2007,06,23,13,16,16.30
2007,06,23,13,17,16.20
2007,06,23,13,18,16.10
2007,06,23,13,19,15.90
2007,06,23,13,20,15.80
2007,06,23,13,21,15.60
2007,06,23,13,22,15.50
2007,06,23,13,23,15.40
2007,06,23,13,24,15.30
2007,06,23,13,25,15.20
2007,06,23,13,26,15.20
2007,06,23,13,27,15.10
2007,06,23,13,28,15.10
2007,06,23,13,29,15.10
2007,06,23,13,30,15.10
2007,06,23,13,31,15.10
2007,06,23,13,32,15.20
2007,06,23,13,33,15.30
2007,06,23,13,34,15.30
2007,06,23,13,35,15.30
2007,06,23,13,36,15.40
2007,06,23,13,37,15.50
2007,06,23,13,38,15.50
2007,06,23,13,39,15.50
2007,06,23,13,40,15.30
2007,06,23,13,41,15.10
2007,06,23,13,42,15.00
2007,06,23,13,43,15.00
2007,06,23,13,44,15.00
2007,06,23,13,45,15.00
2007,06,23,13,46,15.00
2007,06,23,13,47,15.00
2007,06,23,13,48,15.00
2007,06,23,13,49,15.10
2007,06,23,13,50,15.10
2007,06,23,13,51,15.00
2007,06,23,13,52,15.00
2007,06,23,13,53,15.00
2007,06,23,13,54,14.90
2007,06,23,13,55,14.80
2007,06,23,13,56,14.80
2007,06,23,13,57,14.80
2007,06,23,13,58,14.80
2007,06,23,13,59,14.80
2007,06,23,14,00,14.90
2007,06,23,14,01,15.00
2007,06,23,14,02,15.00
2007,06,23,14,03,15.00
2007,06,23,14,04,15.00
2007,06,23,14,05,15.20
2007,06,23,14,06,15.30
2007,06,23,14,07,15.20
2007,06,23,14,08,15.00
2007,06,23,14,09,15.00
2007,06,23,14,10,15.00
2007,06,23,14,11,14.90
2007,06,23,14,12,14.90
2007,06,23,14,13,14.80
2007,06,23,14,14,14.70
2007,06,23,14,15,14.60
2007,06,23,14,16,14.70
2007,06,23,14,17,14.80
2007,06,23,14,18,14.80
2007,06,23,14,19,15.00
2007,06,23,14,20,15.00
2007,06,23,14,21,15.00
2007,06,23,14,22,15.10
2007,06,23,14,23,15.10
2007,06,23,14,24,15.20
2007,06,23,14,25,15.20
2007,06,23,14,26,15.20
2007,06,23,14,27,15.30
2007,06,23,14,28,15.40
2007,06,23,14,29,15.40
2007,06,23,14,30,15.40
2007,06,23,14,31,15.40
2007,06,23,14,32,15.40
2007,06,23,14,33,15.50
2007,06,23,14,34,15.60
2007,06,23,14,35,15.60
2007,06,23,14,36,15.60
2007,06,23,14,37,15.60
2007,06,23,14,38,15.50
2007,06,23,14,39,15.60
2007,06,23,14,40,15.60
2007,06,23,14,41,15.70
2007,06,23,14,42,15.70
2007,06,23,14,43,15.80
2007,06,23,14,44,15.90
2007,06,23,14,45,16.10
2007,06,23,14,46,16.20
2007,06,23,14,47,16.30
2007,06,23,14,48,16.40
2007,06,23,14,49,16.40
2007,06,23,14,50,16.40
2007,06,23,14,51,16.30
2007,06,23,14,52,16.10
2007,06,23,14,53,15.80
2007,06,23,14,54,15.70
2007,06,23,14,55,15.60
2007,06,23,14,56,15.60
2007,06,23,14,57,15.60
2007,06,23,14,58,15.60
2007,06,23,14,59,15.50
2007,06,23,15,00,15.50
2007,06,23,15,01,15.30
2007,06,23,15,02,15.20
2007,06,23,15,03,15.20
2007,06,23,15,04,15.10
2007,06,23,15,05,15.00
2007,06,23,15,06,15.00
2007,06,23,15,07,15.00
2007,06,23,15,08,15.00
2007,06,23,15,09,15.00
2007,06,23,15,10,15.00
2007,06,23,15,11,15.00
2007,06,23,15,12,15.10
2007,06,23,15,13,15.20
2007,06,23,15,14,15.30
2007,06,23,15,15,15.30
2007,06,23,15,16,15.30
2007,06,23,15,17,15.40
2007,06,23,15,18,15.40
2007,06,23,15,19,15.40
2007,06,23,15,20,15.40
2007,06,23,15,21,15.30
2007,06,23,15,22,15.30
2007,06,23,15,23,15.30
2007,06,23,15,24,15.30
2007,06,23,15,25,15.20
2007,06,23,15,26,15.10
2007,06,23,15,27,15.10
2007,06,23,15,28,15.10
2007,06,23,15,29,15.10
2007,06,23,15,30,15.10
2007,06,23,15,31,15.20
2007,06,23,15,32,15.30
2007,06,23,15,33,15.40
2007,06,23,15,34,15.40
2007,06,23,15,35,15.50
2007,06,23,15,36,15.60
2007,06,23,15,37,15.60
2007,06,23,15,38,15.50
2007,06,23,15,39,15.40
2007,06,23,15,40,15.40
2007,06,23,15,41,15.40
2007,06,23,15,42,15.30
2007,06,23,15,43,15.30
2007,06,23,15,44,15.30
2007,06,23,15,45,15.30
2007,06,23,15,46,15.30
2007,06,23,15,47,15.30
2007,06,23,15,48,15.40
2007,06,23,15,49,15.40
2007,06,23,15,50,15.30
2007,06,23,15,51,15.20
2007,06,23,15,52,15.20
2007,06,23,15,53,15.20
2007,06,23,15,54,15.20
2007,06,23,15,55,15.20
2007,06,23,15,56,15.10
2007,06,23,15,57,15.10
2007,06,23,15,58,15.10
2007,06,23,15,59,15.20
2007,06,23,16,00,15.20
2007,06,23,16,01,15.20
2007,06,23,16,02,15.30
2007,06,23,16,03,15.20
2007,06,23,16,04,15.30
2007,06,23,16,05,15.30
2007,06,23,16,06,15.30
2007,06,23,16,07,15.30
2007,06,23,16,08,15.30
2007,06,23,16,09,15.30
2007,06,23,16,10,15.40
2007,06,23,16,11,15.30
2007,06,23,16,12,15.30
2007,06,23,16,13,15.40
2007,06,23,16,14,15.40
2007,06,23,16,15,15.40
2007,06,23,16,16,15.50
2007,06,23,16,17,15.40
2007,06,23,16,18,15.40
2007,06,23,16,19,15.40
2007,06,23,16,20,15.40
2007,06,23,16,21,15.40
2007,06,23,16,22,15.50
2007,06,23,16,23,15.50
2007,06,23,16,24,15.50
2007,06,23,16,25,15.50
2007,06,23,16,26,15.50
2007,06,23,16,27,15.50
2007,06,23,16,28,15.50
2007,06,23,16,29,15.50
2007,06,23,16,30,15.50
2007,06,23,16,31,15.60
2007,06,23,16,32,15.70
2007,06,23,16,33,15.70
2007,06,23,16,34,15.70
2007,06,23,16,35,15.70
2007,06,23,16,36,15.80
2007,06,23,16,37,15.80
2007,06,23,16,38,15.90
2007,06,23,16,39,15.90
2007,06,23,16,40,15.90
2007,06,23,16,41,16.00
2007,06,23,16,42,16.10
2007,06,23,16,43,16.10
2007,06,23,16,44,16.00
2007,06,23,16,45,15.90
2007,06,23,16,46,15.90
2007,06,23,16,47,15.90
2007,06,23,16,48,15.90
2007,06,23,16,49,15.90
2007,06,23,16,50,15.90
2007,06,23,16,51,15.90
2007,06,23,16,52,15.90
2007,06,23,16,53,15.90
2007,06,23,16,54,15.90
2007,06,23,16,55,15.90
2007,06,23,16,56,15.90
2007,06,23,16,57,15.90
2007,06,23,16,58,16.00
2007,06,23,16,59,16.00
2007,06,23,17,00,16.00
2007,06,23,17,01,16.10
2007,06,23,17,02,16.20
2007,06,23,17,03,16.20
2007,06,23,17,04,16.20
2007,06,23,17,05,16.30
2007,06,23,17,06,16.30
2007,06,23,17,07,16.20
2007,06,23,17,08,16.00
2007,06,23,17,09,16.00
2007,06,23,17,10,16.00
2007,06,23,17,11,15.90
2007,06,23,17,12,15.90
2007,06,23,17,13,15.90
2007,06,23,17,14,15.90
2007,06,23,17,15,15.90
2007,06,23,17,16,15.90
2007,06,23,17,17,15.90
2007,06,23,17,18,15.90
2007,06,23,17,19,15.80
2007,06,23,17,20,15.80
2007,06,23,17,21,15.80
2007,06,23,17,22,15.80
2007,06,23,17,23,15.80
2007,06,23,17,24,15.80
2007,06,23,17,25,15.80
2007,06,23,17,26,15.80
2007,06,23,17,27,15.80
2007,06,23,17,28,15.90
2007,06,23,17,29,15.90
2007,06,23,17,30,15.90
2007,06,23,17,31,16.00
2007,06,23,17,32,16.00
2007,06,23,17,33,16.00
2007,06,23,17,34,16.00
2007,06,23,17,35,16.00
2007,06,23,17,36,16.00
2007,06,23,17,37,16.00
2007,06,23,17,38,16.00
2007,06,23,17,39,16.00
2007,06,23,17,40,16.10
2007,06,23,17,41,16.10
2007,06,23,17,42,16.00
2007,06,23,17,43,16.00
2007,06,23,17,44,16.00
2007,06,23,17,45,16.00
2007,06,23,17,46,16.00
2007,06,23,17,47,16.00
2007,06,23,17,48,16.10
2007,06,23,17,49,16.10
2007,06,23,17,50,16.10
2007,06,23,17,51,16.10
2007,06,23,17,52,16.20
2007,06,23,17,53,16.20
2007,06,23,17,54,16.20
2007,06,23,17,55,16.20
2007,06,23,17,56,16.20
2007,06,23,17,57,16.20
2007,06,23,17,58,16.20
2007,06,23,17,59,16.10
2007,06,23,18,00,16.10
2007,06,23,18,01,16.00
2007,06,23,18,02,16.10
2007,06,23,18,03,16.10
2007,06,23,18,04,16.10
2007,06,23,18,05,16.10
2007,06,23,18,06,16.10
2007,06,23,18,07,16.10